Home   Weather   Paris Vinto Pampa   Past weeks
Flag for Bolivia

Past Weather in Paris Vinto Pampa, Bolivia — Yesterday and Last 2 Weeks

Now
68 °F

Passing clouds.


Feels Like: 68 °F
Forecast: N/A
Wind: 8 mph from Northwest

Location: Cochabamba Airport
Current Time: Sep 27, 2020 at 7:54:34 pm
Latest Report: Sep 27, 2020 at 7:00 pm
Visibility: N/A
Pressure30.09 "Hg
Humidity: 35%
Dew Point: 39 °F
Location of Paris Vinto PampaLocation

Past Weather in Paris Vinto Pampa — Graph

°F

Paris Vinto Pampa Temperature Yesterday

Maximum temperature yesterday: 86 °F (at 2:00 pm)
Minimum temperature yesterday: 48 °F (at 6:00 am)
Average temperature yesterday: 67 °F

High & Low Weather Summary for the Past Weeks

 TemperatureHumidityPressure
High86 °F (Sep 25, 3:00 pm)100% (Sep 19, 1:00 am)30.51 "Hg (Sep 19, 1:00 am)
Low45 °F (Sep 24, 6:00 am)10% (Sep 23, 3:00 pm)30.04 "Hg (Sep 21, 4:00 pm)
Average65 °F46%30.26 "Hg
* Reported Sep 12 6:00 pm — Sep 27 6:00 pm, Paris Vinto Pampa. Weather by CustomWeather, © 2020

Note: Actual official high and low records may vary slightly from our data, if they occured in-between our weather recording intervals... More about our weather records

Paris Vinto Pampa Weather History for the Previous 24 Hours

Scroll right to see more
 ConditionsComfort  
Time TempWeatherWind HumidityBarometerVisibility
6:00 pm
Sun, Sep 27
73 °FPartly sunny.9 mph25%30.07 "HgN/A
5:00 pm72 °FScattered clouds.17 mph23%30.07 "HgN/A
3:00 pm75 °FScattered clouds.9 mphN/AN/AN/A
2:00 pm79 °FScattered clouds.13 mph21%30.09 "HgN/A
1:00 pm79 °FPassing clouds.10 mph23%30.12 "HgN/A
12:00 pm81 °FPassing clouds.7 mph15%30.15 "HgN/A
11:00 am75 °FPassing clouds.5 mph19%30.18 "HgN/A
10:00 am75 °FClear.No wind21%30.21 "HgN/A
9:00 am70 °FClear.No wind35%30.21 "HgN/A
8:00 am64 °FClear.No wind43%30.21 "HgN/A
7:00 am57 °FClear.5 mph55%30.18 "HgN/A
6:00 am54 °FClear.3 mph63%30.15 "HgN/A
5:00 am54 °FClear.3 mph63%30.12 "HgN/A
4:00 am57 °FClear.2 mph55%30.12 "HgN/A
3:00 am59 °FPassing clouds.3 mph48%30.12 "HgN/A
2:00 am61 °FPassing clouds.8 mph45%30.12 "HgN/A
1:00 am59 °FPassing clouds.5 mph51%30.12 "HgN/A
12:00 am63 °FPassing clouds.6 mph42%30.12 "HgN/A
11:00 pm
Sat, Sep 26
63 °FPassing clouds.5 mph45%30.12 "HgN/A
10:00 pm63 °FPassing clouds.6 mph49%30.12 "HgN/A
9:00 pm68 °FPassing clouds.6 mph33%30.12 "HgN/A
8:00 pm70 °FPassing clouds.6 mph33%30.09 "HgN/A
7:00 pm70 °FPassing clouds.7 mph35%30.07 "HgN/A
Weather by CustomWeather, © 2020

See weather overview